Stations météo

Publicité
Freiburg, Allemagne (10803): Température de l'air & dewpoint: 20.04.2018 17:00:00 - 26.04.2018 17:00:00 (CEST)Freiburg, Allemagne (10803): Température de l'air 5cm & Température de l'air -5cm: 20.04.2018 17:00:00 - 26.04.2018 17:00:00 (CEST)Freiburg, Allemagne (10803): Température de l'air -20cm & Température de l'air -100cm: 20.04.2018 17:00:00 - 26.04.2018 17:00:00 (CEST)Freiburg, Allemagne (10803): Vitesse du vent & gusts: 20.04.2018 17:00:00 - 26.04.2018 17:00:00 (CEST)Freiburg, Allemagne (10803): Direction du vent: 20.04.2018 17:00:00 - 26.04.2018 17:00:00 (CEST)Freiburg, Allemagne (10803): reduced air pressure: 20.04.2018 17:00:00 - 26.04.2018 17:00:00 (CEST)Freiburg, Allemagne (10803): visibility: 20.04.2018 17:00:00 - 26.04.2018 17:00:00 (CEST)Freiburg, Allemagne (10803): Ensoleillement: 20.04.2018 17:00:00 - 26.04.2018 17:00:00 (CEST)Freiburg, Allemagne (10803): Quantités de précipitations: 20.04.2018 17:00:00 - 26.04.2018 17:00:00 (CEST)
Date & Time tt [°C] td [°C] tt 5cm [°C] tt -5cm [°C] tt -20cm [°C] tt -100cm [°C] ff [km/h] ff [knt] fx [km/h] fx [knt] dd ppp [hPa] vv [km] sd [min] rr [mm]
26.04.2018 17:00:00 16,0 1,0 23,4 22,8 17,8 13,3 12 6 21 12 NNW 1019,0 64 30 0,0
26.04.2018 16:00:00 15,0 0,9 16,5 21,4 17,6 13,3 11 6 22 12 WSW 1019,5 70 10 0,0
26.04.2018 15:00:00 15,0 2,8 19,7 21,1 17,2 13,3 13 7 21 12 WNW 1019,8 70 6 0,0
26.04.2018 14:00:00 14,5 3,1 18,4 23,0 16,7 13,3 9 5 27 14 W 1020,0 46 31 0,0
26.04.2018 13:00:00 13,2 3,7 19,1 21,2 16,3 13,3 10 6 21 11 NW 1020,9 33 21 0,0
26.04.2018 12:00:00 13,0 5,5 16,6 17,8 16,2 13,2 5 3 16 9 NNW 1021,1 68 0 0,0
26.04.2018 11:00:00 11,7 5,2 15,1 16,8 16,1 13,2 7 4 21 12 NNW 1021,2 54 0 0,0
26.04.2018 10:00:00 12,6 5,9 15,6 16,9 16,0 13,2 11 6 24 13 WNW 1020,7 56 31 0,0
26.04.2018 09:00:00 12,3 8,6 15,5 15,3 16,0 13,2 11 6 25 13 W 1020,6 45 32 0,0
26.04.2018 08:00:00 11,4 8,8 12,3 13,6 16,3 13,2 15 8 23 13 SW 1020,1 38 28 0,0
26.04.2018 07:00:00 10,7 8,8 9,7 12,9 16,6 13,2 12 6 18 10 SW 1019,7 33 0 0,0
26.04.2018 06:00:00 10,6 8,6 9,3 13,6 16,8 13,2 2 1 9 5 E 1019,6 62 0 0,0
26.04.2018 05:00:00 10,4 8,7 10,1 14,0 17,1 13,2 6 4 20 11 NW 1019,5 42 0 0,1
26.04.2018 04:00:00 11,6 9,8 11,0 14,7 17,4 13,2 5 3 8 5 W 1018,6 31 0 0,3
26.04.2018 03:00:00 12,0 10,7 11,5 15,0 17,7 13,2 0 0 16 9 N 1018,1 8 0 0,1
26.04.2018 02:00:00 12,2 10,5 11,7 15,4 18,0 13,2 11 6 25 13 N 1017,8 15 0 0,2
26.04.2018 01:00:00 14,5 8,9 14,0 15,8 18,3 13,2 18 10 28 15 SW 1017,1 70 0 0,0
26.04.2018 00:00:00 14,7 8,6 13,6 16,2 18,7 13,2 17 9 29 16 SW 1017,0 70 0 0,0
25.04.2018 23:00:00 15,3 7,4 13,7 16,5 19,1 13,2 8 4 20 11 WSW 1016,7 70 0 0,0
25.04.2018 22:00:00 16,6 7,0 13,7 17,4 19,5 13,2 12 7 32 17 W 1015,6 70 0 0,0
25.04.2018 21:00:00 18,7 7,0 16,6 19,1 19,8 13,2 18 10 29 15 W 1014,1 70 0 0,0
25.04.2018 20:00:00 19,8 8,2 18,7 21,1 20,0 13,1 14 8 29 16 W 1013,3 62 17 0,0
25.04.2018 19:00:00 20,4 9,0 20,7 23,3 19,9 13,1 18 10 31 17 WSW 1013,1 50 15 0,0
25.04.2018 18:00:00 21,1 9,6 23,2 25,0 19,7 13,1 18 10 37 20 W 1013,2 47 27 0,0
25.04.2018 17:00:00 21,3 9,3 22,4 25,8 19,4 13,1 23 12 46 25 WSW 1013,5 48 24 0,0
25.04.2018 16:00:00 22,3 9,4 26,1 27,5 18,8 13,1 26 14 53 29 WSW 1013,6 26 59 0,0
25.04.2018 15:00:00 22,1 10,4 25,6 26,9 18,2 13,1 32 18 57 31 SW 1014,1 39 49 0,0
25.04.2018 14:00:00 20,8 8,7 23,6 26,4 17,5 13,1 30 16 55 30 WSW 1014,5 30 52 0,0
25.04.2018 13:00:00 20,3 9,6 23,9 25,2 16,8 13,1 37 20 58 31 SW 1015,0 22 54 0,0
25.04.2018 12:00:00 19,4 9,8 22,6 23,5 16,2 13,1 40 22 56 30 SW 1015,3 13 60 0,0
25.04.2018 11:00:00 18,8 11,1 21,7 20,5 15,9 13,1 30 16 46 25 SW 1015,1 18 60 0,0
25.04.2018 10:00:00 17,8 11,1 19,6 16,3 15,8 13,1 30 16 46 25 SW 1015,2 27 13 0,0
25.04.2018 09:00:00 17,6 10,3 17,3 15,0 15,8 13,1 21 12 38 21 SSW 1014,7 42 11 0,0
25.04.2018 08:00:00 17,9 9,2 17,7 14,0 16,0 13,1 19 11 29 16 SSW 1014,0 43 42 0,0
25.04.2018 07:00:00 15,5 9,3 12,9 13,3 16,2 13,1 11 6 17 9 S 1013,7 46 0 0,0
25.04.2018 06:00:00 15,3 8,6 12,1 13,1 16,5 13,1 11 6 17 9 S 1013,8 47 0 0,0
25.04.2018 05:00:00 15,8 9,0 14,0 13,2 16,8 13,1 13 7 20 11 S 1014,3 46 0 0,0
25.04.2018 04:00:00 15,5 9,3 12,7 12,8 17,2 13,1 16 9 20 11 S 1014,6 45 0 0,0
25.04.2018 03:00:00 9,8 7,8 6,6 13,1 17,7 13,0 6 4 10 5 S 1015,3 33 0 0,0
25.04.2018 02:00:00 11,1 8,6 8,7 14,1 18,1 13,0 4 2 17 9 WNW 1015,3 35 0 0,0
25.04.2018 01:00:00 14,7 8,9 11,5 14,9 18,6 13,0 11 6 17 9 S 1015,1 51 0 0,0
25.04.2018 00:00:00 14,6 8,9 11,5 15,9 19,1 13,0 11 6 16 9 S 1015,5 53 0 0,0
24.04.2018 23:00:00 16,0 9,5 13,6 17,0 19,5 13,0 13 7 16 9 S 1015,7 48 0 0,0
24.04.2018 22:00:00 17,3 9,6 14,6 18,3 19,9 13,0 11 6 17 9 S 1015,8 49 0 0,0
24.04.2018 21:00:00 19,5 9,2 17,6 19,9 20,3 13,0 10 6 22 12 SSW 1015,5 57 0 0,0
24.04.2018 20:00:00 20,6 8,9 19,0 21,9 20,4 13,0 16 9 26 14 SW 1015,2 62 33 0,0
24.04.2018 19:00:00 21,9 6,7 22,2 24,9 20,3 13,0 12 6 24 13 WSW 1015,1 64 60 0,0
24.04.2018 18:00:00 22,6 7,0 26,5 27,0 20,0 13,0 6 4 22 12 W 1015,5 69 60 0,0
24.04.2018 17:00:00 22,3 7,8 26,0 28,1 19,5 13,0 11 6 26 14 WSW 1016,2 51 57 0,0
24.04.2018 16:00:00 21,8 7,9 26,3 28,5 18,8 13,0 13 7 26 14 WNW 1017,0 51 53 0,0
24.04.2018 15:00:00 21,1 9,2 24,2 27,8 18,0 13,0 8 5 29 15 W 1017,8 51 49 0,0
24.04.2018 14:00:00 20,5 10,5 24,8 27,7 17,2 13,0 16 9 32 17 SW 1018,4 44 54 0,0
24.04.2018 13:00:00 20,0 10,3 24,4 26,1 16,4 13,0 18 10 29 16 SW 1018,9 35 60 0,0
24.04.2018 12:00:00 19,4 10,2 23,1 23,2 15,8 12,9 15 8 25 14 SSW 1019,7 40 55 0,0
24.04.2018 11:00:00 18,1 11,4 22,1 20,9 15,3 12,9 15 8 23 13 SW 1019,8 31 60 0,0
24.04.2018 10:00:00 16,8 12,5 19,3 18,2 15,0 12,9 13 7 21 11 SSW 1020,1 36 58 0,0
24.04.2018 09:00:00 14,5 11,8 15,7 14,9 15,0 12,9 2 1 6 3 NW 1020,7 26 29 0,0
24.04.2018 08:00:00 11,9 11,2 12,9 12,3 15,2 12,9 4 2 6 3 N 1020,6 15 18 0,0
24.04.2018 07:00:00 10,5 10,0 7,4 11,5 15,4 12,9 0 0 5 3 N 1020,4 10 0 0,0
24.04.2018 06:00:00 11,2 10,6 8,2 12,2 15,7 12,9 2 1 5 3 S 1020,2 23 0 0,0
24.04.2018 05:00:00 11,8 11,4 10,5 12,8 15,9 12,9 4 2 9 5 NNE 1020,4 21 0 0,0
24.04.2018 04:00:00 12,7 11,9 11,3 13,4 16,1 12,9 4 2 9 5 NE 1020,1 29 0 0,0
24.04.2018 03:00:00 13,4 11,3 12,0 13,4 16,3 12,9 4 2 19 10 WSW 1020,1 41 0 0,0
24.04.2018 02:00:00 14,3 11,1 12,4 13,8 16,5 12,8 11 6 16 9 S 1020,0 50 0 0,0
24.04.2018 01:00:00 15,3 11,5 14,4 13,8 16,7 12,8 14 7 22 12 S 1020,1 53 0 0,0
24.04.2018 00:00:00 14,7 11,3 13,6 14,0 17,0 12,8 9 5 18 10 S 1020,2 51 0 0,0
23.04.2018 23:00:00 14,5 11,1 12,7 14,3 17,3 12,8 14 8 22 12 S 1019,8 60 0 0,0
23.04.2018 22:00:00 14,4 11,4 13,3 15,0 17,6 12,8 10 5 20 11 S 1019,9 68 0 0,0
23.04.2018 21:00:00 14,3 11,4 12,2 15,7 17,8 12,8 9 5 14 7 SW 1019,3 70 0 0,0
23.04.2018 20:00:00 15,6 13,0 15,8 17,4 17,9 12,8 5 3 16 9 NNW 1018,5 41 7 0,0
23.04.2018 19:00:00 15,6 12,3 15,1 17,7 18,1 12,7 11 6 23 12 SW 1018,5 39 0 0,0
23.04.2018 18:00:00 15,9 13,3 15,2 17,8 18,2 12,7 10 6 21 11 SSW 1019,1 35 0 0,4
23.04.2018 17:00:00 16,2 14,4 15,8 18,3 18,3 12,7 5 3 15 8 SW 1019,0 19 0 0,3
23.04.2018 16:00:00 16,4 14,5 15,9 18,8 18,3 12,7 11 6 15 8 SW 1019,0 13 0 0,4
23.04.2018 15:00:00 16,4 14,0 16,9 19,2 18,4 12,7 3 2 14 8 NNW 1018,8 35 0 0,0
23.04.2018 14:00:00 16,8 13,3 16,6 20,1 18,3 12,7 7 4 13 7 ENE 1018,6 15 0 0,2
23.04.2018 13:00:00 16,1 13,9 16,2 19,8 18,2 12,6 4 2 25 13 NNE 1019,2 19 0 2,2
23.04.2018 12:00:00 19,1 12,1 20,9 21,5 17,9 12,6 13 7 16 9 NNW 1017,5 51 2 0,0
23.04.2018 11:00:00 20,4 11,0 26,4 22,4 17,5 12,6 5 3 18 10 N 1017,1 50 38 0,0
23.04.2018 10:00:00 18,9 10,3 22,7 19,2 17,4 12,6 13 7 27 14 NNE 1017,4 43 25 0,0
23.04.2018 09:00:00 20,2 6,8 20,2 17,6 17,5 12,6 16 9 26 14 SW 1016,6 54 15 0,0
23.04.2018 08:00:00 19,8 7,3 19,1 15,9 17,7 12,6 16 9 27 14 SW 1015,9 28 13 0,0
23.04.2018 07:00:00 13,3 9,5 12,0 15,0 18,0 12,5 2 1 5 3 SE 1016,3 23 0 0,0
23.04.2018 06:00:00 13,6 8,9 10,1 15,3 18,3 12,5 0 0 7 4 N 1016,3 28 0 0,0
23.04.2018 05:00:00 14,6 9,1 10,7 15,8 18,6 12,5 7 4 9 5 NNW 1016,2 30 0 0,0
23.04.2018 04:00:00 14,1 10,3 10,8 16,5 18,9 12,5 0 0 4 2 N 1016,0 28 0 0,0
23.04.2018 03:00:00 14,6 10,4 12,5 17,1 19,3 12,5 0 0 5 3 N 1015,6 27 0 0,0
23.04.2018 02:00:00 14,8 10,2 12,7 17,3 19,6 12,5 0 0 4 2 N 1015,8 28 0 0,0
23.04.2018 01:00:00 14,6 10,3 12,1 17,7 20,0 12,5 3 1 4 2 N 1015,9 27 0 0,0
23.04.2018 00:00:00 17,5 9,3 13,0 18,5 20,4 12,4 0 0 5 3 N 1015,3 30 0 0,0
22.04.2018 23:00:00 17,8 10,2 12,8 19,3 20,9 12,4 0 0 7 4 N 1015,1 29 0 0,0
22.04.2018 22:00:00 19,6 9,2 14,5 20,5 21,2 12,4 3 2 11 6 SSW 1014,6 31 0 0,0
22.04.2018 21:00:00 20,9 9,1 16,1 22,0 21,5 12,4 6 3 16 9 S 1013,9 32 0 0,0
22.04.2018 20:00:00 24,6 8,7 21,9 23,8 21,7 12,4 11 6 18 10 SW 1012,7 31 0 0,0
22.04.2018 19:00:00 25,6 8,0 23,6 25,7 21,7 12,4 11 6 26 14 WSW 1012,1 32 24 0,0
22.04.2018 18:00:00 27,6 4,9 28,5 28,4 21,4 12,3 19 11 31 17 SW 1012,0 30 60 0,0
22.04.2018 17:00:00 27,8 5,4 29,8 29,6 20,9 12,3 22 12 35 19 SSW 1012,4 27 60 0,0
22.04.2018 16:00:00 28,1 5,5 31,9 30,2 20,2 12,3 22 12 34 18 S 1012,9 28 60 0,0
22.04.2018 15:00:00 27,7 6,8 30,7 30,2 19,5 12,3 19 10 32 18 SW 1013,6 38 60 0,0
22.04.2018 14:00:00 27,1 8,7 31,4 29,2 18,7 12,3 19 11 34 18 SSW 1014,2 26 60 0,0
22.04.2018 13:00:00 25,9 9,0 30,0 27,5 18,0 12,3 23 13 33 18 SW 1014,6 26 60 0,0
22.04.2018 12:00:00 25,1 8,3 29,0 25,6 17,3 12,2 19 10 30 16 WSW 1015,1 32 60 0,0
22.04.2018 11:00:00 23,9 8,8 26,8 23,0 16,8 12,2 23 12 32 18 SW 1015,5 30 60 0,0
22.04.2018 10:00:00 20,4 10,6 26,1 20,0 16,6 12,2 3 2 11 6 NNE 1016,1 28 60 0,0
22.04.2018 09:00:00 16,8 10,4 19,6 16,6 16,7 12,2 6 3 9 5 SW 1016,4 21 60 0,0
22.04.2018 08:00:00 14,9 10,1 15,3 13,9 16,9 12,2 3 1 26 14 SSE 1016,2 22 38 0,0
22.04.2018 07:00:00 10,7 9,3 7,1 13,1 17,3 12,2 3 1 4 2 ESE 1015,8 15 0 0,0
22.04.2018 06:00:00 10,6 8,6 7,9 13,5 17,7 12,1 0 0 5 3 N 1016,3 18 0 0,0
22.04.2018 05:00:00 13,2 9,8 9,5 14,1 18,1 12,1 6 4 10 5 E 1016,4 18 0 0,0
22.04.2018 04:00:00 10,6 9,0 7,5 14,7 18,6 12,1 4 2 7 4 NW 1016,8 13 0 0,0
22.04.2018 03:00:00 12,0 9,8 7,8 15,3 19,0 12,1 2 1 6 4 W 1016,8 20 0 0,0
22.04.2018 02:00:00 14,5 10,6 9,4 16,1 19,5 12,1 3 2 6 3 ENE 1016,8 20 0 0,0
22.04.2018 01:00:00 15,0 9,4 10,6 17,0 20,0 12,1 4 2 10 6 WNW 1017,0 24 0 0,0
22.04.2018 00:00:00 15,2 10,3 11,2 17,8 20,5 12,1 5 3 9 5 N 1016,8 22 0 0,0
21.04.2018 23:00:00 14,9 10,6 10,7 19,0 21,0 12,0 3 2 5 3 NNW 1016,8 25 0 0,0
21.04.2018 22:00:00 16,8 11,4 12,2 20,4 21,5 12,0 2 1 6 3 NNE 1016,6 23 0 0,0
21.04.2018 21:00:00 19,3 11,2 14,0 22,4 21,8 12,0 3 2 7 4 NE 1016,2 32 0 0,0
21.04.2018 20:00:00 24,5 9,9 19,9 24,9 22,0 12,0 4 2 14 8 NNE 1015,5 36 39 0,0
21.04.2018 19:00:00 27,0 8,7 29,8 27,7 21,8 12,0 9 5 17 9 N 1015,4 36 60 0,0
21.04.2018 18:00:00 27,5 9,3 31,5 29,8 21,4 12,0 11 6 17 9 NNW 1015,7 40 60 0,0
21.04.2018 17:00:00 28,4 9,6 33,2 31,4 20,8 11,9 7 4 14 7 W 1016,0 39 60 0,0
21.04.2018 16:00:00 27,5 6,4 33,0 31,7 20,0 11,9 10 6 18 10 W 1016,9 37 60 0,0
21.04.2018 15:00:00 27,5 7,8 33,0 31,6 19,1 11,9 7 4 20 11 W 1017,5 38 60 0,0
21.04.2018 14:00:00 26,3 6,2 35,5 30,6 18,2 11,9 9 5 18 10 NW 1018,3 34 60 0,0
21.04.2018 13:00:00 25,5 9,1 33,7 28,8 17,3 11,9 5 3 12 6 NNW 1018,9 33 60 0,0
21.04.2018 12:00:00 24,0 10,8 30,3 26,2 16,5 11,9 3 2 8 4 SW 1019,7 30 60 0,0
21.04.2018 11:00:00 22,1 9,5 29,3 22,8 15,9 11,8 4 2 9 5 WSW 1020,4 37 60 0,0
21.04.2018 10:00:00 20,2 9,4 23,8 19,1 15,7 11,8 2 1 8 4 W 1020,5 39 60 0,0
21.04.2018 09:00:00 16,1 8,1 21,7 15,4 15,7 11,8 4 2 6 3 NNE 1021,0 29 60 0,0
21.04.2018 08:00:00 11,9 8,4 14,6 12,6 16,0 11,8 0 0 4 2 N 1021,4 21 42 0,0
21.04.2018 07:00:00 8,2 7,0 5,8 11,8 16,4 11,8 0 0 7 4 N 1021,3 19 0 0,0
21.04.2018 06:00:00 8,8 7,2 5,1 12,3 16,8 11,8 3 1 5 3 NW 1020,8 21 0 0,0
21.04.2018 05:00:00 9,4 7,6 5,7 12,9 17,3 11,7 2 1 4 2 NNW 1021,1 25 0 0,0
21.04.2018 04:00:00 10,0 8,2 6,5 13,5 17,7 11,7 0 0 6 4 N 1021,1 24 0 0,0
21.04.2018 03:00:00 11,6 9,1 7,4 14,2 18,2 11,7 2 1 5 3 SE 1020,9 13 0 0,0
21.04.2018 02:00:00 10,9 8,5 7,3 14,9 18,6 11,7 2 1 5 3 N 1021,3 24 0 0,0
21.04.2018 01:00:00 12,1 8,8 7,7 15,8 19,1 11,7 2 1 4 2 NNE 1021,3 21 0 0,0
21.04.2018 00:00:00 12,9 9,5 8,8 16,7 19,6 11,7 2 1 6 3 N 1021,5 25 0 0,0
20.04.2018 23:00:00 14,3 10,4 10,3 17,9 20,1 11,7 5 3 6 3 NNE 1021,2 33 0 0,0
20.04.2018 22:00:00 17,1 10,0 11,0 19,3 20,6 11,6 3 1 5 3 S 1021,1 38 0 0,0
20.04.2018 21:00:00 18,9 9,7 12,9 21,1 20,9 11,6 2 1 10 5 E 1020,6 48 0 0,0
20.04.2018 20:00:00 23,4 8,4 20,5 23,6 21,1 11,6 8 4 21 11 NNW 1019,8 54 43 0,0
20.04.2018 19:00:00 25,9 7,2 27,4 26,2 21,0 11,6 13 7 23 12 NNW 1019,7 49 60 0,0
20.04.2018 18:00:00 27,1 7,6 32,7 28,1 20,6 11,6 9 5 17 9 NNW 1019,9 65 60 0,0
20.04.2018 17:00:00 27,0 4,4 31,8 29,4 20,1 11,6 8 5 18 10 NNW 1020,4 66 60 0,0

tt = Température de l'air
td = dewpoint
tt 5cm = Température de l'air 5cm
tt -5cm = Température de l'air -5cm
tt -20cm = Température de l'air -20cm
tt -100cm = Température de l'air -100cm
ff = Vitesse du vent
fx = gusts
dd = Direction du vent
ppp = reduced air pressure
vv = visibility
sd = Ensoleillement
rr = Quantités de précipitations

stations d'obs. à proximité